Theta_e
324 326 327 326 328 330 330 330 331 328 322 322 322 324 324 322 315 315 316 316 321 328 328 331 332 333 333 329 325 325 328 328 329 330 328 328 327 326 326 327 328 327 326 324
325 328 324 324 326 328 330 330 331 329 316 317 321 323 322 322 323 321 315 315 316 321 324 329 330 331 333 333 330 324 324 326 327 328 328 328 327 326 326 328 329 328 327 324
324 322 323 325 325 328 330 331 329 331 321 321 322 324 325 325 321 318 317 315 315 317 322 325 329 331 333 333 333 331 324 324 324 327 327 327 327 327 328 329 330 329 326 325
322 320 323 323 325 325 330 328 328 328 328 332 322 328 327 326 326 323 318 313 312 313 318 321 328 330 332 333 333 333 331 324 324 325 326 327 328 329 330 329 329 328 326 325
324 321 325 326 326 326 328 326 327 322 325 325 328 327 325 324 325 324 323 317 314 312 314 319 323 328 330 333 333 334 333 329 325 325 326 328 330 330 330 330 331 330 327 326
320 317 322 325 325 324 319 320 320 320 325 330 327 327 326 325 323 323 323 320 318 315 312 316 322 326 329 331 333 334 334 333 330 326 326 328 330 330 330 330 331 330 329 327
321 323 316 320 324 318 321 325 326 330 329 330 319 325 326 322 320 321 320 317 315 316 313 312 317 323 326 329 332 333 333 333 333 332 329 328 331 331 331 331 331 330 329 329
324 323 319 321 323 322 324 324 323 326 327 324 312 322 323 322 319 314 313 314 314 310 313 312 313 320 325 327 329 330 332 333 333 333 333 331 331 332 331 331 332 331 330 329
321 321 316 320 318 320 322 326 320 318 308 318 318 317 317 317 314 311 310 311 312 310 309 312 313 315 322 326 327 328 330 330 331 332 333 333 332 332 332 332 332 332 331 330
317 320 315 311 318 316 321 319 324 322 321 323 321 321 320 316 316 314 312 312 311 310 309 308 308 310 311 315 320 325 327 329 329 330 331 332 333 332 332 332 332 332 330 329
316 318 317 315 320 320 320 322 322 322 322 322 322 318 312 316 314 313 307 307 308 308 308 307 307 309 309 309 309 311 319 323 324 326 328 329 330 332 332 332 331 330 329 328
316 316 316 317 312 316 318 322 320 324 322 319 319 318 310 308 308 308 308 308 309 309 308 308 309 309 309 309 309 308 309 311 314 318 320 324 327 329 330 330 329 328 328 327
315 316 318 316 312 311 319 319 320 317 316 318 318 317 311 307 308 308 307 308 308 310 310 308 307 308 309 309 309 309 309 310 311 312 314 317 321 326 326 327 326 325 326 325
314 315 316 318 318 314 317 318 318 319 318 318 319 317 309 308 309 307 308 309 309 311 310 308 307 307 310 310 309 308 309 309 310 311 312 313 316 321 320 321 321 322 323 322
315 314 315 314 315 315 316 318 319 320 319 319 317 318 315 314 313 313 311 313 314 312 311 309 307 306 309 309 309 308 308 308 308 309 310 311 312 315 316 317 317 319 318 316
313 314 312 308 314 315 315 316 317 318 318 318 316 316 314 314 314 313 313 312 311 310 310 309 308 308 307 308 308 307 307 307 307 307 308 308 309 309 309 309 310 312 312 312
314 312 315 311 310 311 311 314 315 316 316 317 317 316 311 311 313 313 311 311 311 310 309 307 305 305 307 308 308 307 306 306 306 306 306 306 307 307 306 306 306 307 307 307
313 312 312 311 312 313 311 312 313 314 314 314 315 314 314 312 312 312 312 310 309 309 308 304 304 305 306 307 307 306 306 305 305 304 303 304 304 304 303 303 303 304 303 302
311 313 311 314 314 312 310 308 314 314 315 314 314 313 312 312 312 311 310 305 304 304 303 303 303 304 305 306 306 305 304 303 302 302 302 302 302 302 302 303 302 300 299 297
313 312 313 315 310 312 311 308 310 310 311 312 312 313 312 311 313 309 303 303 302 301 300 300 302 304 304 303 303 302 301 300 299 299 300 300 300 300 301 302 301 299 297 295
313 313 314 311 307 309 308 306 309 309 308 306 310 311 309 310 309 303 301 300 299 298 298 299 301 300 299 299 300 299 298 298 298 298 298 298 298 298 298 298 297 296 293 291
313 314 314 307 305 309 305 307 310 307 306 304 307 307 308 304 302 300 299 298 296 295 295 297 297 294 295 297 298 297 295 296 296 295 295 295 295 295 295 294 293 291 290 289
310 311 312 311 308 307 306 305 307 305 304 305 304 304 303 301 301 299 297 295 293 292 292 293 293 291 291 292 294 293 292 294 294 294 293 292 292 291 291 291 291 290 289 288
307 307 306 306 306 304 303 303 303 304 304 304 303 302 301 300 298 297 295 293 290 289 289 290 290 288 287 288 289 290 291 292 292 292 291 291 290 290 289 288 289 288 288 287
304 305 304 303 303 303 304 302 300 301 300 299 298 300 299 298 296 294 291 289 288 288 287 288 287 286 285 286 287 288 289 290 290 289 289 288 288 287 287 287 286 287 287 287
304 305 307 305 303 305 305 300 299 298 298 295 295 295 294 294 292 290 288 288 287 286 286 285 284 284 283 284 284 285 287 288 289 288 288 287 287 286 286 286 285 286 285 285
Wind_Speed
12 8 17 16 14 9 10 11 11 8 7 6 9 9 11 9 8 8 7 8 9 13 18 24 25 26 24 26 28 30 28 28 29 28 27 25 26 24 23 22 21 20 19 18
6 21 15 14 14 10 6 11 11 3 7 3 6 10 9 10 9 8 11 10 8 8 10 20 27 29 31 30 32 32 32 32 33 31 32 28 27 26 26 23 23 24 22 20
18 12 15 17 17 15 10 10 9 6 4 2 5 9 10 9 9 9 9 9 9 9 10 11 24 30 28 33 35 35 35 35 35 31 29 25 22 23 24 24 25 26 24 23
14 15 22 20 19 14 17 4 5 5 3 2 2 5 4 5 17 15 13 9 9 10 8 10 22 27 33 34 33 36 35 36 35 33 29 30 29 26 26 30 30 30 29 27
11 14 23 20 19 17 3 9 5 4 4 4 4 3 4 6 5 7 16 12 12 11 11 12 19 30 32 33 38 38 37 37 36 38 35 33 29 27 27 27 27 30 31 31
4 4 14 12 12 12 12 10 8 5 3 5 7 7 5 6 8 5 6 12 15 13 11 11 22 25 29 33 34 35 36 37 38 39 40 34 32 29 27 30 30 31 32 33
6 4 3 6 11 18 6 10 3 2 3 7 5 9 11 10 11 3 4 5 7 12 11 10 10 18 26 33 36 36 36 36 37 38 37 40 35 35 34 33 32 33 35 37
14 10 8 8 12 8 13 13 5 7 5 4 2 7 5 14 5 4 5 8 4 5 3 9 11 20 24 26 29 30 33 35 36 37 38 37 38 34 36 34 31 37 39 39
15 6 6 9 6 13 4 6 3 5 1 3 5 6 7 7 8 6 8 6 7 6 5 1 6 17 20 24 26 32 31 31 31 36 36 36 37 37 35 35 35 36 38 38
11 7 3 1 9 2 9 10 4 2 6 5 5 5 5 6 10 10 9 7 5 3 5 2 0 4 8 17 23 27 31 33 34 33 35 37 38 39 39 34 35 37 37 37
18 7 3 5 8 13 8 8 5 5 2 4 0 5 2 9 9 8 8 7 6 7 5 4 4 1 7 11 14 17 27 31 32 35 36 35 35 35 34 34 36 36 38 36
3 6 9 4 1 7 8 12 6 5 5 2 3 5 3 8 8 9 8 7 6 6 4 2 4 4 6 9 13 19 22 25 30 28 30 32 32 32 35 37 35 34 37 36
10 7 9 3 5 3 17 16 16 5 3 6 5 5 5 10 8 6 8 6 4 4 4 4 5 7 7 7 9 13 16 20 21 24 26 28 27 29 31 35 34 32 35 35
7 7 6 14 17 9 9 14 13 5 3 5 12 8 6 8 8 8 7 7 6 4 4 4 4 6 5 6 7 10 12 14 16 18 20 23 23 28 29 28 30 31 32 32
6 5 5 5 15 16 25 26 22 20 24 12 21 19 12 6 5 6 6 5 2 4 5 4 3 4 5 6 10 10 12 12 15 18 19 21 21 21 23 24 26 26 28 27
5 5 5 6 6 16 21 20 23 29 28 16 6 11 7 4 4 5 4 5 5 5 5 4 4 4 6 8 10 12 12 13 15 16 18 17 19 19 19 19 21 22 25 26
7 6 4 2 4 8 1 27 27 25 21 24 13 14 7 6 5 5 6 5 5 5 4 6 6 7 9 10 8 10 11 11 14 14 15 15 16 16 16 17 18 19 22 24
9 5 4 3 3 2 7 20 20 24 23 24 19 4 8 9 6 6 4 1 5 5 3 4 7 12 12 8 5 4 5 9 11 11 13 14 15 16 15 15 17 18 21 23
9 6 4 6 6 4 4 6 21 17 17 21 25 15 10 8 2 6 1 5 5 4 5 6 9 10 10 7 4 2 4 7 8 11 14 15 15 16 15 15 17 18 20 22
5 7 4 4 6 11 1 9 15 6 6 15 15 17 18 10 10 3 5 5 7 8 7 8 8 8 10 10 7 5 3 4 7 10 13 14 14 16 17 17 17 19 20 22
8 8 12 5 4 6 6 7 13 8 7 12 19 15 9 7 5 7 8 6 7 7 9 10 11 13 12 10 8 9 9 11 10 10 10 11 12 14 15 15 16 18 19 20
9 11 8 3 3 10 8 9 16 6 2 5 6 8 9 9 9 8 8 7 6 8 12 15 14 15 14 12 11 13 15 12 11 9 8 8 9 10 11 12 13 14 16 17
4 8 9 12 6 4 16 10 5 5 6 5 7 5 9 11 7 8 7 7 6 10 12 12 14 17 19 18 16 16 14 12 10 9 9 9 8 8 8 11 13 14 15 16
2 5 5 5 5 8 10 2 6 4 6 7 6 7 8 9 10 9 7 6 6 12 14 14 17 19 19 18 19 17 14 13 12 11 10 8 8 8 7 8 11 13 14 15
4 6 7 1 1 5 4 5 8 5 8 9 8 6 8 12 10 10 7 6 9 13 16 18 20 19 18 18 20 18 16 13 15 14 12 11 10 8 7 7 10 12 14 15
3 6 8 5 11 6 12 9 10 9 7 8 13 7 6 8 11 12 8 11 14 15 16 19 19 19 16 18 19 19 17 14 11 12 12 11 9 8 7 7 8 8 10 12
Wind_Direction
187 186 202 188 192 232 189 181 187 231 181 161 228 248 241 232 200 198 235 262 193 179 192 196 192 196 203 194 198 199 194 199 200 204 201 203 204 203 204 205 203 204 210 208
162 217 193 194 194 221 256 197 209 282 121 147 268 263 238 223 237 210 201 219 236 189 178 178 191 204 202 199 199 199 201 201 202 200 206 206 206 209 210 210 212 208 216 213
199 194 196 210 195 199 217 199 209 208 134 208 279 272 234 246 227 228 230 196 202 217 193 180 187 199 207 203 199 201 201 204 204 204 204 204 209 209 211 213 212 215 219 219
215 213 194 201 203 193 202 150 70 93 102 209 11 289 270 235 227 221 222 209 210 210 203 193 189 197 203 204 205 202 205 206 206 204 202 200 201 203 207 210 219 222 221 221
178 198 188 196 196 184 174 140 110 72 84 32 200 272 270 224 267 251 217 214 210 209 206 205 198 201 202 202 205 205 205 208 206 206 204 204 206 209 209 211 217 225 226 224
132 289 183 189 183 173 130 95 59 45 53 257 198 219 245 213 229 239 224 208 217 213 215 207 216 205 203 203 207 207 206 209 209 209 208 209 208 208 209 211 213 222 224 222
136 157 113 182 162 141 140 153 109 177 204 239 139 213 240 275 282 276 276 280 261 206 202 200 194 197 200 204 208 208 209 212 210 211 209 212 215 213 212 212 214 211 214 219
154 187 187 175 170 176 167 176 162 176 193 205 242 236 250 221 219 228 242 255 250 339 250 197 196 207 207 207 210 211 210 213 211 211 214 214 215 217 215 216 216 215 220 228
171 144 174 155 138 149 182 188 36 97 101 64 202 248 288 232 241 232 240 242 254 228 254 205 196 202 206 212 216 217 219 222 218 216 217 218 219 218 219 220 221 222 231 234
146 114 243 125 127 282 181 147 133 259 153 217 243 231 226 194 221 225 243 206 213 153 125 120 65 267 244 221 221 219 219 221 223 224 224 222 222 222 222 224 223 230 232 232
147 113 182 152 201 165 157 186 192 131 200 177 116 255 253 200 178 160 102 82 87 87 72 62 56 193 240 242 236 229 225 223 225 226 226 226 227 227 227 226 234 238 236 230
104 107 148 158 342 179 186 172 168 169 208 238 125 259 122 97 88 102 102 94 89 97 117 143 202 219 235 246 244 236 228 230 232 230 229 229 231 229 225 227 233 240 238 236
157 143 127 106 348 210 204 178 198 102 78 199 145 260 173 105 98 80 126 115 135 163 182 246 242 231 245 258 254 250 249 243 237 230 226 223 222 223 227 230 231 233 234 236
109 158 162 192 200 122 188 191 191 170 154 157 221 179 121 145 155 158 163 185 223 235 253 263 295 281 289 265 260 254 249 246 241 229 226 225 225 224 226 229 236 236 233 232
124 132 178 164 160 167 179 183 183 197 218 188 229 225 223 190 198 153 172 214 273 303 296 286 260 271 284 286 261 258 244 234 230 228 226 230 227 227 228 229 229 228 228 232
159 136 115 2 162 165 184 184 191 201 214 224 241 270 195 165 141 160 257 285 283 278 266 308 323 306 281 271 267 257 251 237 231 234 233 230 227 233 235 233 230 229 231 234
140 128 119 156 79 88 326 199 199 209 206 216 210 225 120 126 144 184 243 242 246 271 329 327 319 314 309 303 295 271 259 242 235 235 238 233 233 231 232 234 234 232 235 232
145 96 78 139 114 190 251 179 204 210 208 217 234 203 193 198 224 206 186 170 267 268 299 9 345 333 335 346 321 290 256 237 239 247 247 244 242 240 234 231 232 233 231 230
137 100 106 149 209 285 206 210 190 182 222 218 224 226 229 241 248 261 301 67 86 78 49 26 356 342 346 3 344 286 223 230 243 248 249 245 242 242 237 237 239 238 237 232
119 123 111 149 157 210 216 173 177 100 263 204 207 214 219 203 228 188 125 85 66 55 45 20 11 29 34 24 14 19 2 317 296 284 272 263 252 249 245 243 239 239 234 234
155 177 190 176 208 262 201 165 120 147 234 197 203 205 184 178 196 150 120 87 90 69 42 36 47 54 36 33 40 48 31 12 350 331 305 287 280 269 264 257 247 241 231 227
166 164 188 128 152 253 169 143 156 197 109 161 130 158 162 130 118 121 117 108 89 65 48 51 60 55 48 48 56 56 39 16 4 352 333 313 293 278 267 258 257 250 240 227
157 196 171 190 192 212 174 170 159 140 143 182 129 131 123 128 139 137 131 118 94 83 72 72 80 72 59 57 60 59 35 33 31 19 6 352 331 305 285 267 253 238 234 231
209 153 145 108 205 167 189 50 136 156 156 139 125 138 130 130 126 112 107 106 97 81 71 83 82 69 59 58 60 60 51 46 47 42 34 22 1 340 317 284 267 256 250 239
189 123 148 104 12 65 138 183 165 119 111 110 92 104 122 122 118 117 110 100 97 89 83 82 78 69 59 54 56 54 53 55 59 51 41 32 23 3 339 309 287 282 276 270
187 166 180 215 177 164 199 163 146 140 145 139 125 99 81 112 118 116 103 96 95 82 85 80 77 75 70 64 55 51 52 55 65 63 53 46 40 22 7 341 328 304 289 282